Regional Weather Roundup
Issued by NWS Green Bay, WI

Home | Current Version | Previous Version | Text Only | Print | Product List | Glossary On
Versions: 1 2 3 4 5 6 7 8 9 10 11 12 13 14 15 16 17 18 19 20 21 22 23 24 25 26 27 28 29 30 31 32 33 34 35 36 37 38 39 40 41 42 43 44 45 46 47 48 49 50
987
ASUS43 KGRB 082100
RWRGRB

NORTH-CENTRAL AND NORTHEAST WISCONSIN REGIONAL WEATHER ROUNDUP
NATIONAL WEATHER SERVICE GREEN BAY WI
300 PM CST MON FEB 08 2016

WIZ005-009-010>012-018-019-082200-
NORTH CENTRAL WISCONSIN

CITY           SKY/WX    TMP DP  RH WIND       PRES   REMARKS
IRONWOOD       CLOUDY    16  12  86 NW15G22   29.76R VSB 3/4 WCI   1
MANITOWISH WTR NOT AVBL
ARBOR VITAE    NOT AVBL
EAGLE RIVER    NOT AVBL
LAND O LAKES   NOT AVBL
RHINELANDER    LGT SNOW  19  12  74 NW10      29.69R WCI   7
PHILLIPS       NOT AVBL
ANTIGO         NOT AVBL
TOMAHAWK       NOT AVBL
MERRILL        NOT AVBL
$$

WIZ013-073-082200-
NORTHEAST WISCONSIN

CITY           SKY/WX    TMP DP  RH WIND       PRES   REMARKS
IRON MOUNTAIN  MIX PCPN  22  13  68 NW20G25   29.67R WCI   7
MARINETTE      CLOUDY    27  19  74 N9        29.67R
$$

WIZ017-030-035>037-045-082200-
CENTRAL WISCONSIN

CITY           SKY/WX    TMP DP  RH WIND       PRES   REMARKS
MEDFORD        NOT AVBL
WAUSAU         CLOUDY    26  14  60 NW14      29.69R
MOSINEE        NOT AVBL
MARSHFIELD     CLOUDY    21  10  62 NW20      29.72R WCI   6
WISC RAPIDS    CLOUDY    20  11  68 NW17      29.75R WCI   5
STEVENS POINT  NOT AVBL
WAUPACA        NOT AVBL
SHAWANO        NOT AVBL
CLINTONVILLE   NOT AVBL
WAUTOMA        NOT AVBL
$$

WIZ038-039-048-051-082200-
FOX VALLEY

CITY           SKY/WX    TMP DP  RH WIND       PRES   REMARKS
NWS GREEN BAY  LGT SNOW  29  25  85 N13       29.67R VSB 3/4
APPLETON       FLURRIES  28  19  69 NW15      29.65R
OSHKOSH        CLOUDY    29  23  78 NW12      29.67R
FOND DU LAC    CLOUDY    27  20  75 W13       29.67R
$$

WIZ022-050-052-082200-
EAST CENTRAL WISCONSIN

CITY           SKY/WX    TMP DP  RH WIND       PRES   REMARKS
EPHRAIM        NOT AVBL
STURGEON BAY   CLOUDY    28  21  74 NW17      29.67R
MANITOWOC      NOT AVBL
SHEBOYGAN      LGT SNOW  28  23  81 NW13      29.64R
$$

LMZ563-521-522-541>543-082200-
LAKESHORE

STATION/POSITION TIME  TEMP    WIND        PRES    VSBY  WAVE
                       AIR SEA DIR/SP/G                  HT/PER
                 (UTC) (F)     (DEG/KT/KT) (MB)    (MI)  (FT/S)
SHEBOYGAN LKSHOR 2000   28     280/ 17/ 19 1004.2R
KEWAUNEE LKSHORE 2000   31     360/  9/ 14 1002.6R
NORTHPORT PIER   2000   28     340/ 18/ 23 1004.1S
CHAMBERS ISLAND  2000   28     320/ 17/ 19 1004.4R
MENOMINEE LKSHOR 2000   27     320/ 18     1003.1R
$$




USA.gov is the U.S. government's official web portal to all federal, state and local government web resources and services.